This demonstration page uses our WeatherBlox Daily Observations layout. Learn more.

Left ArrowRight Arrow

Hourly Observations for January 12, 2015

Temp ( °F °C ) Dew Point ( °F °C ) Humidity (%) Winds ( mph kmh ) Pressure ( in mb ) Visibility ( mi km ) Precip ( " mm )
12:53 am 00:53 Cloudy with Mist and Fog 38 3.3 37 2.8 97 97 NE 5 7 30.36 1028 2 3 0.00 0.03
1:20 am 01:20 Cloudy with Light Rain 37 3 37 3 100 100 NNE 6 9 30.39 1029 1 2 0.00 0.00
1:53 am 01:53 Cloudy with Light Rain 39 3.9 37 2.8 93 93 ENE 7 11 30.34 1028 2 3 0.00 0.03
2:27 am 02:27 Cloudy with Mist and Fog 39 3.9 37 2.8 93 93 NE 7 11 30.36 1028 2 3 0.00 0.03
2:53 am 02:53 Cloudy with Mist and Fog 39 3.9 37 2.8 93 93 NE 5 7 30.32 1027 2 3 0.00 0.03
3:36 am 03:36 Cloudy with Mist and Fog 39 4 37 3 93 93 NE 6 9 30.33 1027 1 2 0.00 0.00
3:53 am 03:53 Cloudy with Mist and Fog 39 3.9 38 3.3 96 96 NE 6 9 30.32 1027 1 2 0.00 0.00
4:53 am 04:53 Cloudy with Mist and Fog 40 4.4 39 3.9 97 97 E 5 7 30.30 1026 1 2 0.00 0.00
5:53 am 05:53 Cloudy with Mist and Fog 40 4.4 39 3.9 97 97 NE 3 6 30.29 1026 2 3 0.00 0.00
6:19 am 06:19 Cloudy with Mist and Fog 40 4.4 39 3.9 97 97 NE 3 6 30.30 1026 1 2 0.00 0.00
6:53 am 06:53 Cloudy with Mist and Fog 41 5 39 3.9 93 93 NNE 3 6 30.28 1025 2 3 0.00 0.00
7:08 am 07:08 Cloudy with Mist and Fog 41 5 39 4 93 93 NE 5 7 30.30 1026 3 4 0.00 0.00
7:21 am 07:21 Cloudy with Mist and Fog 41 5 39 3.9 93 93 NNE 6 9 30.30 1026 3 4 0.00 0.00
7:37 am 07:37 Cloudy with Mist and Fog 41 5 40 4.4 96 96 NE 5 7 30.30 1026 2 3 0.00 0.00
7:53 am 07:53 Cloudy with Mist and Fog 41 5 40 4.4 96 96 Calm 30.28 1025 2 3 0.00 0.00
8:53 am 08:53 Cloudy with Mist and Fog 42 5.6 41 5 96 96 Calm 30.28 1025 2 3 0.00 0.00
9:26 am 09:26 Cloudy with Mist and Fog 43 6 41 5 93 93 Calm 30.27 1025 1 1 0.00 0.00
9:40 am 09:40 Cloudy with Fog 43 6 41 5 93 93 Calm 30.27 1025 1 1 0.00 0.00
9:53 am 09:53 Cloudy with Mist and Fog 43 6.1 42 5.6 97 97 Calm 30.29 1026 1 1 0.00 0.00
10:00 am 10:00 Cloudy with Mist and Fog 43 6 43 6 100 100 Calm 30.27 1025 1 1 0.00 0.00
10:24 am 10:24 Cloudy with Mist and Fog 43 6 43 6 100 100 Calm 30.27 1025 1 1 0.00 0.00
10:53 am 10:53 Cloudy with Mist and Fog 44 6.7 42 5.6 93 93 Calm 30.28 1026 1 1 0.00 0.00
11:04 am 11:04 Cloudy with Mist and Fog 45 7 43 6 93 93 ENE 3 6 30.27 1025 0 0 0.00 0.00
11:28 am 11:28 Cloudy with Mist and Fog 44 6.7 43 6.1 96 96 E 5 7 30.24 1024 1 1 0.00 0.00
11:41 am 11:41 Cloudy with Mist and Fog 45 7.2 44 6.7 97 97 NE 3 6 30.24 1024 0 0 0.00 0.00
11:53 am 11:53 Cloudy with Mist and Fog 45 7.2 44 6.7 97 97 ENE 3 6 30.24 1024 0 0 0.00 0.00
12:53 pm 12:53 Cloudy with Mist and Fog 46 7.8 44 6.7 93 93 E 3 6 30.23 1024 0 0 0.00 0.00
1:53 pm 13:53 Mostly Cloudy with Light Rain 46 7.8 45 7.2 96 96 NNE 3 6 30.19 1022 0 0 0.00 0.03
2:39 pm 14:39 Cloudy with Fog 47 8.3 46 7.8 97 97 E 7 11 30.18 1022 1 1 0.00 0.03
2:53 pm 14:53 Cloudy with Mist and Fog 47 8.3 46 7.8 97 97 Calm 30.15 1021 1 1 0.00 0.03
3:01 pm 15:01 Cloudy with Mist and Fog 48 8.9 46 7.8 93 93 E 3 6 30.18 1022 1 2 0.00 0.00
3:16 pm 15:16 Cloudy with Mist and Fog 48 9 46 8 94 94 S 6 9 30.18 1022 2 3 0.00 0.00
3:23 pm 15:23 Cloudy with Mist and Fog 48 8.9 46 7.8 93 93 SSE 6 9 30.18 1022 1 2 0.00 0.00
3:30 pm 15:30 Cloudy with Mist and Fog 48 9 46 8 94 94 SSW 3 6 30.21 1023 1 2 0.00 0.00
3:53 pm 15:53 Cloudy with Mist and Fog 48 8.9 47 8.3 96 96 Calm 30.17 1022 1 2 0.00 0.00
4:34 pm 16:34 Cloudy with Mist and Fog 48 9 46 8 94 94 E 5 7 30.18 1022 1 2 0.00 0.00
4:53 pm 16:53 Cloudy with Mist and Fog 48 8.9 46 7.8 93 93 ESE 3 6 30.17 1022 1 2 0.00 0.00
5:09 pm 17:09 Cloudy with Mist and Fog 48 8.9 47 8.3 96 96 Calm 30.21 1023 1 1 0.00 0.00
5:49 pm 17:49 Cloudy with Mist and Fog 48 9 46 8 94 94 Calm 30.18 1022 1 1 0.00 0.03
5:53 pm 17:53 Cloudy with Mist and Fog 48 8.9 47 8.3 96 96 Calm 30.17 1022 1 1 0.00 0.03
6:00 pm 18:00 Cloudy with Mist and Fog 48 9 46 8 94 94 Calm 30.21 1023 2 3 0.00 0.00
6:53 pm 18:53 Cloudy with Light Rain 47 8.3 46 7.8 97 97 Calm 30.17 1022 3 4 0.01 0.25
7:46 pm 19:46 Cloudy with Mist and Fog 46 8 46 8 100 100 Calm 30.21 1023 2 3 0.00 0.00
7:50 pm 19:50 Cloudy with Mist and Fog 46 8 46 8 100 100 Calm 30.21 1023 1 2 0.00 0.00
7:53 pm 19:53 Cloudy with Mist and Fog 48 8.9 46 7.8 93 93 Calm 30.18 1022 2 2 0.00 0.03
8:33 pm 20:33 Cloudy with Mist and Fog 48 8.9 47 8.3 96 96 Calm 30.21 1023 2 3 0.00 0.00
8:53 pm 20:53 Cloudy with Mist and Fog 48 8.9 46 7.8 93 93 Calm 30.19 1022 2 3 0.00 0.00
9:00 pm 21:00 Cloudy with Mist and Fog 48 9 46 8 94 94 Calm 30.21 1023 5 8 0.00 0.00
9:53 pm 21:53 Cloudy with Mist and Fog 48 8.9 46 7.8 93 93 Calm 30.20 1023 3 5 0.00 0.00
10:11 pm 22:11 Cloudy with Mist and Fog 48 8.9 46 7.8 93 93 Calm 30.21 1023 2 3 0.00 0.00
10:23 pm 22:23 Cloudy with Mist and Fog 48 8.9 46 7.8 93 93 VRB 3 6 30.21 1023 3 5 0.00 0.00
10:34 pm 22:34 Cloudy with Mist and Fog 48 8.9 46 7.8 93 93 Calm 30.21 1023 4 6 0.00 0.00
10:53 pm 22:53 Cloudy with Mist and Fog 48 8.9 46 7.8 93 93 Calm 30.21 1023 3 4 0.00 0.00
11:03 pm 23:03 Cloudy with Mist and Fog 48 9 46 8 94 94 Calm 30.21 1023 3 5 0.00 0.00
11:20 pm 23:20 Cloudy with Mist and Fog 48 9 46 8 94 94 Calm 30.21 1023 4 6 0.00 0.00
11:53 pm 23:53 Cloudy with Mist and Fog 48 8.9 46 7.8 93 93 VRB 3 6 30.18 1022 6 10 0.00 0.00

Powered by AerisWeather